This is the latest recevied weather packets stored in our database for station/object KI4HRG. If no packets are shown the sender has not sent any weather packets the latest 10 day(s).
| Time | Temp. | Humidity | Pressure | Rain* | Wind** | Luminosity | Snow |
|---|---|---|---|---|---|---|---|
| 1777919355 | 26.11° C | 42% | 1015.5 hPa | 0 mm | - | 777 W/m² | - |
| 1777919052 | 24.44° C | 43% | 1015.6 hPa | 0 mm | - | 759 W/m² | - |
| 1777918749 | 25° C | 43% | 1015.8 hPa | 0 mm | - | 786 W/m² | - |
| 1777918446 | 25.56° C | 41% | 1015.8 hPa | 0 mm | - | 738 W/m² | - |
| 1777918145 | 25.56° C | 42% | 1015.8 hPa | 0 mm | - | 707 W/m² | - |
| 1777917843 | 24.44° C | 45% | 1015.7 hPa | 0 mm | - | 785 W/m² | - |
| 1777917541 | 25.56° C | 44% | 1015.8 hPa | 0 mm | - | 639 W/m² | - |
| 1777917237 | 25.56° C | 45% | 1015.9 hPa | 0 mm | - | 770 W/m² | - |
| 1777916935 | 23.89° C | 46% | 1016.1 hPa | 0 mm | - | 730 W/m² | - |
| 1777916633 | 26.11° C | 44% | 1016.1 hPa | 0 mm | - | 561 W/m² | - |
| 1777916329 | 25.56° C | 43% | 1015.9 hPa | 0 mm | - | 730 W/m² | - |
| 1777916026 | 25.56° C | 45% | 1016 hPa | 0 mm | - | 745 W/m² | - |
| 1777915723 | 24.44° C | 46% | 1016.2 hPa | 0 mm | - | 725 W/m² | - |
| 1777915420 | 25° C | 43% | 1016.1 hPa | 0 mm | - | 717 W/m² | - |
| 1777915115 | 24.44° C | 44% | 1016.4 hPa | 0 mm | - | 719 W/m² | - |
| 1777914813 | 25.56° C | 45% | 1016.3 hPa | 0 mm | - | 703 W/m² | - |
| 1777914510 | 25.56° C | 44% | 1016.4 hPa | 0 mm | - | 708 W/m² | - |
| 1777914207 | 25° C | 44% | 1016.7 hPa | 0 mm | - | 695 W/m² | - |
| 1777913903 | 24.44° C | 46% | 1016.6 hPa | 0 mm | - | 737 W/m² | - |
| 1777913600 | 24.44° C | 45% | 1016.8 hPa | 0 mm | - | 731 W/m² | - |
| 1777913296 | 23.33° C | 48% | 1016.8 hPa | 0 mm | - | 730 W/m² | - |
| 1777912994 | 23.33° C | 49% | 1016.9 hPa | 0 mm | - | 741 W/m² | - |
| 1777912689 | 23.89° C | 47% | 1016.9 hPa | 0 mm | - | 729 W/m² | - |
| 1777912385 | 24.44° C | 44% | 1016.8 hPa | 0 mm | - | 728 W/m² | - |
| 1777912082 | 25° C | 45% | 1016.9 hPa | 0 mm | - | 685 W/m² | - |
* Rain latest hour (hover to see other rain measurements)
** Current wind speed in m/s (hover to see current wind gust speed)